[[{"header":{"parameterUnit":"m.s-1","parameterCategory":1,"la1":30.2991,"la2":30.254,"lo1":-89.0895,"lo2":-89.0444,"dy":0.0017,"dx":0.0017,"nx":28,"ny":28,"refTime":"2025-04-04T21:00:00:Z","depth":0,"parameterNumber":2,"parameterNumberName":"U-component_of_WINDS"},"data":[0,0,0,0,0,0,0,0,0,0,0,0,0,0,0,0,0,0,0,0,0,0,0,0,0,0,0,0,0,0,0,0,0,0,0,0,0,0,0,0,0,0,0,0,0,0,0,0,0,0,0,0,0,0,0,0,0,0,-5.3965,-5.3966,0,-5.4021,-5.4022,-5.4022,-5.4002,-5.4001,-5.3999,-5.3998,-5.4051,-5.4054,-5.4056,0,0,0,0,0,0,0,0,0,0,0,0,0,-5.384,-5.3842,-5.3965,-5.3966,-5.3967,-5.4021,-5.4022,-5.4022,-5.4002,-5.4,-5.3999,-5.3998,-5.405,-5.4053,-5.4057,0,0,0,0,0,0,0,0,0,0,0,0,0,-5.3895,-5.3843,-5.3965,-5.3963,-5.3964,-5.4021,-5.4022,-5.4023,-5.4002,-5.4,-5.3999,-5.3997,-5.4049,-5.4053,-5.4057,-5.4118,0,0,-5.4069,-5.407,0,0,0,0,0,0,0,0,-5.3892,-5.3899,-5.3963,-5.3963,-5.3964,-5.4003,-5.3997,-5.4055,-5.4003,-5.3987,-5.3998,-5.3996,-5.4036,-5.4041,-5.4056,-5.4121,-5.4123,-5.4069,-5.4071,-5.4073,-5.4074,0,0,0,0,0,0,0,-5.3888,-5.3897,-5.3987,-5.3964,-5.3964,-5.3959,-5.3965,-5.4008,-5.4022,-5.3989,-5.3987,-5.3994,-5.4036,-5.4052,-5.4057,-5.4124,-5.4069,-5.4072,-5.4075,-5.4076,-5.4245,-5.4247,0,0,0,0,0,0,-5.3884,-5.3894,-5.3985,-5.3989,-5.3923,-5.3963,-5.3969,-5.3992,-5.4021,-5.4024,-5.3996,-5.3993,-5.4046,-5.4052,-5.4058,-5.4133,-5.4073,-5.4077,-5.4079,-5.4242,-5.4245,-5.4247,0,0,0,0,0,0,-5.3882,-5.3893,-5.3983,-5.3941,-5.3952,-5.3967,-5.3993,-5.3994,-5.401,-5.4027,-5.4029,-5.4009,-5.4045,-5.4053,-5.4104,-5.4134,-5.4078,-5.4082,-5.424,-5.4243,-5.4246,-5.4281,0,0,0,0,0,0,-5.3878,-5.3892,-5.3915,-5.3942,-5.3955,-5.4028,-5.3995,-5.3997,-5.4017,-5.4014,-5.404,-5.4042,-5.4044,-5.4099,-5.4108,-5.4138,-5.4085,-5.4237,-5.4241,-5.4245,-5.4277,-5.4285,-5.4292,0,0,0,0,0,-5.3874,-5.3922,-5.3916,-5.3928,-5.3984,-5.403,-5.4037,-5.4039,-5.4019,-5.4043,-5.4055,-5.4041,-5.413,-5.4104,-5.4115,-5.4147,-5.4235,-5.424,-5.4245,-5.4274,-5.4284,-5.4292,0,0,0,0,0,0,-5.3895,-5.3925,-5.3919,-5.3978,-5.4002,-5.4027,-5.4056,-5.4049,-5.4078,-5.4074,-5.4075,-5.4081,-5.4134,-5.4146,-5.4116,-5.4209,-5.418,-5.4187,-5.4198,-5.4208,-5.4215,-5.421,-5.4088,0,0,0,0,0,-5.3908,-5.3943,-5.3967,-5.4016,-5.4029,-5.4041,-5.4061,-5.4061,-5.4085,-5.4095,-5.411,-5.4133,-5.4167,-5.4188,-5.422,-5.4281,-5.4286,-5.4308,-5.4315,-5.4321,-5.4326,-5.436,-5.437,-5.4263,-5.4263,-5.4263,0,0,-5.3931,-5.3952,-5.3974,-5.4021,-5.4039,-5.4076,-5.4049,-5.4088,-5.4115,-5.41,-5.415,-5.4162,-5.4189,-5.4246,-5.4271,-5.4257,-5.4358,-5.4327,-5.4332,-5.4334,-5.4366,-5.4377,-5.4386,-5.4266,-5.4266,-5.4265,0,0,-5.3994,-5.4013,-5.4057,-5.4077,-5.4107,-5.4116,-5.4127,-5.4154,-5.4162,-5.4212,-5.4203,-5.4235,-5.4292,-5.4312,-5.4329,-5.4404,-5.4393,-5.4415,-5.4451,-5.4485,-5.4493,-5.45,-5.4526,-5.4536,-5.4421,-5.4421,-5.4421,0,-5.4019,-5.4074,-5.4079,-5.412,-5.4141,-5.4133,-5.4177,-5.4197,-5.4235,-5.4249,-5.4234,-5.4307,-5.4324,-5.4386,-5.4405,-5.442,-5.4431,-5.441,-5.4492,-5.4499,-5.4506,-5.4531,-5.4541,-5.4423,-5.4423,-5.4422,-5.4422,0,-5.4104,-5.4143,-5.4174,-5.4214,-5.4239,-5.4281,-5.4293,-5.4318,-5.4317,-5.4327,-5.438,-5.4401,-5.4438,-5.4453,-5.4452,-5.4515,-5.4506,-5.4491,-5.4461,-5.4519,-5.4542,-5.4552,-5.4426,-5.4425,-5.4425,-5.4424,0,0,-5.4176,-5.4222,-5.4233,-5.4252,-5.4287,-5.4316,-5.4359,-5.4397,-5.4418,-5.4446,-5.4482,-5.4533,-5.4521,-5.4541,-5.4542,-5.4572,-5.463,-5.4554,-5.4554,-5.4566,-5.4701,-5.471,-5.4721,-5.4625,-5.4627,-5.4628,-5.4699,0,-5.424,-5.4316,-5.4324,-5.4392,-5.4428,-5.4424,-5.4461,-5.4486,-5.4499,-5.4531,-5.4544,-5.458,-5.4561,-5.4574,-5.4603,-5.4616,-5.4657,-5.4612,-5.4656,-5.4658,-5.4647,-5.4733,-5.4743,-5.4808,-5.4708,-5.4709,-5.4711,0,-5.4324,-5.4357,-5.4429,-5.4461,-5.4476,-5.451,-5.4546,-5.4578,-5.4607,-5.4614,-5.4639,-5.4638,-5.4682,-5.4654,-5.4715,-5.4685,-5.4704,-5.4714,-5.4717,-5.4718,-5.4685,-5.4736,-5.4829,-5.4838,-5.4725,-5.4724,-5.4723,0,-5.4368,-5.4431,-5.4482,-5.4499,-5.4538,-5.4562,-5.4579,-5.4607,-5.463,-5.4662,-5.4677,-5.4714,-5.4733,-5.4761,-5.477,-5.4749,-5.4831,-5.4803,-5.4837,-5.4837,-5.4852,-5.485,-5.4947,-5.4868,-5.4868,-5.4868,-5.4868,0,-5.4437,-5.4481,-5.4503,-5.4534,-5.4584,-5.4594,-5.4643,-5.4659,-5.4685,-5.4719,-5.4718,-5.475,-5.4761,-5.4795,-5.4802,-5.4852,-5.4861,-5.4867,-5.4868,-5.4866,-5.4865,-5.4876,-5.4871,-5.4871,-5.487,-5.487,-5.4869,0,-5.4493,-5.451,-5.4566,-5.46,-5.461,-5.4645,-5.4674,-5.4704,-5.4718,-5.4761,-5.4772,-5.4793,-5.4834,-5.4847,-5.4895,-5.49,-5.4958,-5.4956,-5.4948,-5.4947,-5.498,-5.4976,-5.5086,-5.51,-5.5014,-5.5015,-5.5015,0,-5.4535,-5.4569,-5.4608,-5.4632,-5.4651,-5.4689,-5.4714,-5.4726,-5.4751,-5.479,-5.4816,-5.4857,-5.489,-5.4955,-5.4974,-5.5011,-5.5009,-5.5045,-5.5014,-5.5012,-5.5008,-5.5005,-5.5008,-5.5049,-5.505,-5.5051,-5.5052,0,-5.4607,-5.4614,-5.465,-5.4691,-5.4721,-5.4752,-5.4783,-5.4802,-5.4819,-5.4848,-5.4891,-5.4917,-5.4968,-5.5009,-5.5048,-5.5065,-5.5061,-5.5062,-5.5072,-5.5068,-5.5062,-5.5065,-5.4961,-5.5058,-5.5058,-5.5057,-5.5057,-5.5057,-5.4656,-5.4686,-5.472,-5.4761,-5.4786,-5.4815,-5.4846,-5.4866,-5.4902,-5.4945,-5.4951,-5.4997,-5.5028,-5.5081,-5.51,-5.5136,-5.5126,-5.514,-5.5143,-5.5146,-5.5148,-5.5059,-5.5144,-5.5143,-5.5143,-5.5143,-5.5143,0,-5.4726,-5.4749,-5.4787,-5.4831,-5.4864,-5.4861,-5.4896,-5.4922,-5.4963,-5.4994,-5.5028,-5.5078,-5.5118,-5.5142,-5.5182,-5.5207,-5.5206,-5.5216,-5.5213,-5.5218,-5.5155,-5.5142,-5.5216,-5.5216,-5.5216,-5.5216,-5.5216,-5.5216,-5.4767,-5.4819,-5.4831,-5.4897,-5.4919,-5.4965,-5.4985,-5.5013,-5.5037,-5.5093,-5.5128,-5.5144,-5.5172,-5.5215,-5.5252,-5.5259,-5.5273,-5.5284,-5.5289,-5.5229,-5.5222,-5.5214,-5.5202,-5.5288,-5.5288,-5.5348,-5.5349,-5.5349]},{"header":{"parameterUnit":"m.s-1","parameterCategory":1,"la1":30.2991,"la2":30.254,"lo1":-89.0895,"lo2":-89.0444,"dy":0.0017,"dx":0.0017,"nx":28,"ny":28,"refTime":"2025-04-04T21:00:00:Z","depth":0,"parameterNumber":3,"parameterNumberName":"V-component_of_WINDS"},"data":[0,0,0,0,0,0,0,0,0,0,0,0,0,0,0,0,0,0,0,0,0,0,0,0,0,0,0,0,0,0,0,0,0,0,0,0,0,0,0,0,0,0,0,0,0,0,0,0,0,0,0,0,0,0,0,0,0,0,4.7458,4.7458,0,4.7443,4.7443,4.7443,4.7421,4.7421,4.7421,4.742,4.7404,4.7404,4.7404,0,0,0,0,0,0,0,0,0,0,0,0,0,4.7469,4.7469,4.7458,4.7458,4.7457,4.7443,4.7443,4.7443,4.7421,4.7421,4.7421,4.742,4.7404,4.7404,4.7404,0,0,0,0,0,0,0,0,0,0,0,0,0,4.7461,4.7469,4.7458,4.7445,4.7444,4.7443,4.7443,4.7443,4.7422,4.7421,4.742,4.742,4.7404,4.7404,4.7404,4.7414,0,0,4.7404,4.7404,0,0,0,0,0,0,0,0,4.7461,4.746,4.7447,4.7446,4.7445,4.7434,4.7441,4.7433,4.7422,4.743,4.742,4.742,4.7414,4.7413,4.7412,4.7414,4.7413,4.7404,4.7404,4.7404,4.7404,0,0,0,0,0,0,0,4.7462,4.7461,4.7452,4.7447,4.7445,4.7441,4.7439,4.744,4.7425,4.7429,4.7428,4.7426,4.7414,4.7412,4.7411,4.7413,4.7404,4.7404,4.7404,4.7403,4.7427,4.7428,0,0,0,0,0,0,4.7464,4.7461,4.7452,4.7452,4.7452,4.7441,4.7439,4.7438,4.7425,4.7423,4.7427,4.7425,4.7413,4.7411,4.7411,4.7425,4.7404,4.7403,4.7403,4.7427,4.7427,4.7428,0,0,0,0,0,0,4.7464,4.7464,4.7453,4.7456,4.7454,4.7442,4.744,4.7438,4.7436,4.7424,4.7421,4.7428,4.7412,4.7411,4.7415,4.7424,4.7403,4.7403,4.7426,4.7427,4.7428,4.7452,0,0,0,0,0,0,4.7465,4.7464,4.7467,4.7456,4.7454,4.7457,4.7441,4.7438,4.7436,4.7434,4.7424,4.7421,4.7412,4.7415,4.7415,4.7423,4.7403,4.7425,4.7426,4.7427,4.745,4.7453,4.7456,0,0,0,0,0,4.7465,4.7473,4.7467,4.7466,4.7458,4.7457,4.7456,4.7445,4.7437,4.744,4.7433,4.7422,4.7423,4.7416,4.7415,4.7424,4.7424,4.7426,4.7427,4.7448,4.7453,4.7456,0,0,0,0,0,0,4.7483,4.7471,4.7464,4.7468,4.7464,4.7454,4.7457,4.7449,4.7446,4.7444,4.743,4.7428,4.7435,4.743,4.7422,4.7436,4.7422,4.7424,4.7439,4.7442,4.7445,4.7447,4.7403,0,0,0,0,0,4.7487,4.7488,4.7477,4.7482,4.748,4.747,4.7469,4.7461,4.7456,4.7454,4.7446,4.7442,4.7442,4.7442,4.7441,4.745,4.7448,4.7456,4.7459,4.7461,4.7463,4.7471,4.7475,4.7433,4.7433,4.7433,0,0,4.7496,4.749,4.749,4.7486,4.7481,4.7483,4.7468,4.7469,4.7471,4.7454,4.7458,4.7453,4.7447,4.7455,4.7458,4.7451,4.7475,4.7463,4.7466,4.7466,4.7473,4.7477,4.748,4.7434,4.7434,4.7434,0,0,4.7513,4.7508,4.7513,4.751,4.7505,4.7498,4.75,4.7491,4.7488,4.7492,4.7481,4.7483,4.7482,4.748,4.7478,4.75,4.7491,4.75,4.7517,4.7525,4.7528,4.7531,4.7541,4.7545,4.7502,4.7502,4.7502,0,4.7524,4.7526,4.7516,4.752,4.7519,4.7506,4.7512,4.751,4.7504,4.7505,4.7497,4.7499,4.7494,4.7503,4.7509,4.7507,4.751,4.7501,4.7528,4.7531,4.7534,4.7543,4.7547,4.7503,4.7503,4.7503,4.7503,0,4.7542,4.7544,4.7549,4.7546,4.7546,4.7551,4.7543,4.7545,4.7538,4.7533,4.754,4.7534,4.7534,4.7535,4.7527,4.7544,4.754,4.7531,4.7517,4.7539,4.7548,4.7552,4.7505,4.7505,4.7504,4.7504,0,0,4.7566,4.7561,4.7563,4.7564,4.7559,4.7561,4.7567,4.7568,4.7571,4.7569,4.7574,4.7577,4.7569,4.7568,4.7561,4.7568,4.759,4.7558,4.7558,4.7566,4.7611,4.7619,4.7623,4.7584,4.7584,4.7585,4.7612,0,4.7583,4.7593,4.7586,4.7597,4.7601,4.7591,4.7596,4.7595,4.7592,4.7595,4.7592,4.7594,4.7583,4.7583,4.759,4.7586,4.7599,4.7583,4.759,4.7591,4.7593,4.7627,4.7634,4.766,4.7615,4.7616,4.7616,0,4.7603,4.7604,4.7617,4.7616,4.7617,4.7622,4.7625,4.7628,4.7628,4.7625,4.7626,4.7619,4.7627,4.7614,4.7626,4.7616,4.7619,4.7618,4.7619,4.7619,4.7605,4.763,4.7667,4.7672,4.7621,4.7621,4.762,0,4.7622,4.7627,4.7636,4.7636,4.7635,4.7639,4.7639,4.7639,4.7641,4.7644,4.7646,4.7649,4.765,4.7654,4.7648,4.7639,4.7662,4.7648,4.7661,4.7662,4.7666,4.7666,4.7706,4.7667,4.7667,4.7667,4.7666,0,4.7641,4.7649,4.7645,4.765,4.766,4.7654,4.7665,4.7663,4.7664,4.7671,4.7662,4.7668,4.766,4.7667,4.7662,4.7675,4.7675,4.7674,4.7673,4.7675,4.7676,4.7677,4.7676,4.7668,4.7667,4.7667,4.7667,0,4.7663,4.766,4.7669,4.7669,4.767,4.7677,4.7678,4.7684,4.7682,4.769,4.7692,4.7689,4.7696,4.7692,4.7698,4.7696,4.7713,4.7708,4.7713,4.7712,4.7726,4.7726,4.7769,4.7776,4.7731,4.7732,4.7732,0,4.7675,4.7682,4.7684,4.7689,4.7689,4.7696,4.77,4.7695,4.7699,4.7703,4.771,4.7717,4.7722,4.7735,4.7733,4.774,4.7736,4.7751,4.7737,4.7741,4.7739,4.7739,4.7741,4.7754,4.7754,4.7755,4.7755,0,4.7699,4.7699,4.7704,4.7711,4.7716,4.772,4.7724,4.7729,4.7725,4.7731,4.7739,4.7744,4.7753,4.7761,4.7768,4.7768,4.7762,4.776,4.7764,4.7766,4.777,4.777,4.7722,4.7759,4.7758,4.7758,4.7758,4.7758,4.7717,4.7724,4.7728,4.7736,4.774,4.7745,4.7752,4.7753,4.776,4.7768,4.7765,4.7776,4.778,4.7789,4.7791,4.7801,4.7795,4.7799,4.7801,4.7802,4.7805,4.7768,4.7801,4.7801,4.7801,4.7801,4.7801,0,4.7742,4.7745,4.7753,4.776,4.7768,4.7763,4.7769,4.7775,4.7785,4.779,4.7797,4.7809,4.7818,4.782,4.7829,4.7836,4.7834,4.7839,4.7839,4.784,4.7809,4.7806,4.7841,4.7841,4.7841,4.7841,4.7841,4.7841,4.7755,4.7768,4.7769,4.7785,4.7789,4.78,4.7804,4.781,4.7815,4.7829,4.7838,4.7839,4.7844,4.7854,4.7863,4.7864,4.7868,4.7875,4.7874,4.7845,4.7841,4.7837,4.7834,4.7875,4.7876,4.7904,4.7905,4.7905]}]]